Hourly Weather Roundup
Issued by NWS Central Illinois

Home | Current Version | Previous Version | Text Only | Print | Product List | Glossary On
Versions: 1 2 3 4 5 6 7 8 9 10 11 12 13 14 15 16 17 18 19 20 21 22 23 24 25 26 27 28 29 30 31 32 33 34 35 36 37 38 39 40 41 42 43 44 45 46 47 48 49 50
000
NZUS43 KILX 220010
HWRILX

AREA WEATHER ROUNDUP
NATIONAL WEATHER SERVICE, LINCOLN IL
700 PM CDT THU AUG 21 2014


CITY           SKY/WX    TMP DP  RH WIND       PRES   REMARKS
BLOOMINGTON    MOCLDY    83  75  76 SW8       29.94F HX  90
CHAMPAIGN      PTCLDY    84  77  79 SW8       29.94S HX  94
6HR MIN TEMP:  84; 6HR MAX TEMP:  88;

DECATUR        PTCLDY    86  77  74 SW9       29.93F HX  97
6HR MIN TEMP:  86; 6HR MAX TEMP:  89;

FLORA          PTCLDY    83  75  75 S8        29.95F HX  90
6HR MIN TEMP:  83; 6HR MAX TEMP:  89;

GALESBURG      PTCLDY    83  76  77 SE3       29.90F HX  91
JACKSONVILLE   CLEAR     89  78  71 S5        29.92F HX 103
6HR MIN TEMP:  87; 6HR MAX TEMP:  91;

LACON          PTCLDY    83  74  72 CALM      29.89F HX  90
6HR MIN TEMP:  83; 6HR MAX TEMP:  86;

LAWRENCEVILLE  PTCLDY    85  76  74 S8        29.96F HX  94
6HR MIN TEMP:  85; 6HR MAX TEMP:  90;

LITCHFIELD     PTCLDY    84  78  81 S6        29.93F HX  95
$$


CITY           SKY/WX    TMP DP  RH WIND       PRES   REMARKS
LINCOLN        MOCLDY    87  76  70 S5        29.89S HX  97
6HR MIN TEMP:  87; 6HR MAX TEMP:  91;

MACOMB         CLEAR     84  79  83 S3        29.92F HX  96
MATTOON        CLEAR     83  75  77 SW3       29.94F HX  90
6HR MIN TEMP:  83; 6HR MAX TEMP:  87;

MT CARMEL AP   PTCLDY    86  75  70 SW7       29.96F HX  95
OLNEY-NOBLE AP PTCLDY    84  77  79 CALM      29.95F HX  94
PARIS          CLEAR     83  77  80 SW8       29.96R HX  92
6HR MIN TEMP:  83; 6HR MAX TEMP:  88;

PEORIA         CLEAR     86  75  69 S5        29.90F HX  95
6HR MIN TEMP:  85; 6HR MAX TEMP:  89;

PONTIAC        CLOUDY    84  77  79 CALM      29.91F HX  94
RANTOUL        MOCLDY    85  75  74 SW6       29.95S HX  93
6HR MIN TEMP:  85; 6HR MAX TEMP:  89;

ROBINSON       CLEAR     85  78  78 SW5       29.96S HX  97
6HR MIN TEMP:  85; 6HR MAX TEMP:  91;

SPRINGFIELD    PTCLDY    88  77  69 SW3       29.92S HX 100
6HR MIN TEMP:  86; 6HR MAX TEMP:  90;

TAYLORVILLE    PTCLDY    82  77  83 S5        29.93S HX  91
$$

...REGIONAL REPORTS...


CITY           SKY/WX    TMP DP  RH WIND       PRES   REMARKS
CHICAGO O`HARE MOCLDY    76  70  82 SE10      29.90S
KANKAKEE       CLOUDY    78  74  87 NE7       29.93R HX  81
MOLINE         MOCLDY    82  74  76 SE3       29.88F HX  88
MOUNT VERNON   CLOUDY    84  73  70 S7        29.96F HX  91
PITTSFIELD     PTCLDY    88  78  70 CALM      29.92S HX 101
QUINCY         CLEAR     89  76  65 CALM      29.90S HX 100
ROCKFORD       CLOUDY    77  73  87 S3        29.91S
$$


CITY           SKY/WX    TMP DP  RH WIND       PRES   REMARKS
BURLINGTON     LGT RAIN  86  77  74 S7        29.88F HX  97
CEDAR RAPIDS   PTCLDY    80  74  81 S9        29.87S HX  85
DES MOINES     MOSUNNY   86  75  69 S9        29.84F HX  95
KIRKSVILLE     MOSUNNY   86  77  74 S6        29.90F HX  97
OTTUMWA        CLOUDY    83  77  82 SE3       29.88R HX  92
ST LOUIS       MOCLDY    93  71  48 SW7       29.92F HX 100
$$


CITY           SKY/WX    TMP DP  RH WIND       PRES   REMARKS
TERRE HAUTE    PTCLDY    85  75  72 S7        29.95S HX  93
EVANSVILLE     MOCLDY    87  72  60 SW9       29.97F HX  93
INDIANAPOLIS   MOCLDY    82  74  76 S10       29.96S HX  88
LAFAYETTE      MOCLDY    82  75  79 SW6       29.92S HX  89
MADISON        MOCLDY    77  71  82 SE6       29.90S
MILWAUKEE      MOCLDY    74  69  85 SE6       29.92R
$$




USA.gov is the U.S. government's official web portal to all federal, state and local government web resources and services.